Regional Weather Roundup
Issued by NWS

Home | Current Version | Previous Version | Graphics & Text | Print | Product List | Glossary On
Versions: 1 2 3 4 5 6 7 8 9 10 11 12 13 14 15 16 17 18 19 20 21 22 23 24 25 26 27 28 29 30 31 32 33 34 35 36 37 38 39 40 41 42 43 44 45 46 47 48 49 50
164
ASUS43 KFSD 260710
RWRSD

WEATHER ROUNDUP FOR SOUTH DAKOTA
NATIONAL WEATHER SERVICE SIOUX FALLS SD
200 AM CDT WED JUL 26 2017

NOTE: "FAIR" INDICATES FEW OR NO CLOUDS BELOW 12,000 FEET WITH NO
SIGNIFICANT WEATHER AND/OR OBSTRUCTIONS TO VISIBILITY.


SDZ001>005-009-010-012>017-260800-
NORTHWEST AND NORTH CENTRAL SOUTH DAKOTA

CITY           SKY/WX    TMP DP  RH WIND       PRES   REMARKS
BUFFALO          N/A     68  56  65 SW6       30.06S
FAITH            N/A     70  57  63 N6        30.08S
MOBRIDGE       MOCLDY    72  64  76 NW6       30.00F
$$

SDZ012>016-024>037-041>051-057-063-072>074-260800-
SOUTHWEST AND SOUTH CENTRAL SOUTH DAKOTA

CITY           SKY/WX    TMP DP  RH WIND       PRES   REMARKS
RAPID CTY ARPT CLOUDY    70  54  56 N9        30.11S
PIERRE         CLOUDY    75  69  81 NE15      29.97S
CUSTER         CLOUDY    64  48  56 NE12      30.23R
ELLSWORTH AFB  CLOUDY    72  54  53 N9        30.11S
PHILIP         CLOUDY    75  58  55 NE10      30.02S
PINE RIDGE     CLOUDY    73  66  78 NE7       30.08S
SPEARFISH      MOCLDY    64  59  82 CALM      30.18R
WINNER         FAIR      72  68  87 SE6       29.98R
$$

SDZ004>011-016>023-039-040-260800-
NORTHEAST SOUTH DAKOTA

CITY           SKY/WX    TMP DP  RH WIND       PRES   REMARKS
ABERDEEN       CLOUDY    71  68  90 NE3       29.99S
WATERTOWN      CLOUDY    71  68  90 CALM      30.01F
BROOKINGS      LGT RAIN  69  67  93 N7        30.00R
SISSETON         N/A     73  71  93 N3        29.98F
$$

SDZ017-020-022-023-036>040-048>070-260800-
SOUTHEAST SOUTH DAKOTA

CITY           SKY/WX    TMP DP  RH WIND       PRES   REMARKS
SIOUX FALLS    LGT RAIN  72  72 100 S3        29.98F
HURON          CLOUDY    70  69  97 N6        29.96S
CHAMBERLAIN    CLOUDY    72  72  98 NE6       29.99R
MITCHELL       CLOUDY    74  67  78 S12       29.92R
YANKTON        CLOUDY    71  70  96 CALM      30.01R FOG
$$

ABBREVIATIONS USED IN REMARKS
   TC - TEMPERATURE IN CELSIUS
  WCI - WIND CHILL INDEX
   HX - HEAT INDEX
  VSB - VISIBILITY





USA.gov is the U.S. government's official web portal to all federal, state and local government web resources and services.